Powrót do katalogu

CZ-6A DEB

AktywnyPO
NORAD 61272·DEBRIS·🇨🇳 China

Wystrzelony Aug 6, 2024 z Taiyuan Satellite Launch Center

Loading…

Następne Przeloty (najbliższe 24 godziny)

TLE

ŚwieżeSource: Space-Track

Epoka: Sep 13, 2026, 00:52 UTC

1 61272U 24140SH  26256.03640012  .00001575  00000-0  70327-3 0  9996
2 61272  88.9988 264.9783 0055057 264.0304  95.4610 14.21506701106122

Śledź CZ-6A DEB w czasie rzeczywistym z AllMySat

Download on the App Store